{"data":{"norad_id":57628,"epoch":"2026-09-21T22:00:52.256736Z","epoch_age_seconds":88304,"freshness":"FRESH","line1":"1 57628U 23121C   26264.91727149  .00000427  00000+0  11544-3 0  9997","line2":"2 57628  44.9993 182.3960 0006076  45.2287 314.9065 14.62381041165891","mean_motion":14.62381041,"eccentricity":0.0006076,"inclination_deg":44.9993,"raan_deg":182.396,"arg_perigee_deg":45.2287,"mean_anomaly_deg":314.9065,"bstar":0.00011544,"rev_number":16589,"period_min":98.469547924069,"perigee_km":681.20439345463,"apogee_km":689.78812058856,"semimajor_km":7063.6332570216,"source":"CELESTRAK","updated_at":"2026-09-22T09:00:26.242254Z"}}